Overview Statistics Trail Chart Weather Telemetry Raw packets
 

This is the latest recevied weather packets stored in our database for station/object KI5NXU. If no packets are shown the sender has not sent any weather packets the latest 10 day(s).

<< 104 105 106 107 108 109 110 >>
Time Temp. Humidity Pressure Rain* Wind** Luminosity Snow
1787608992 43.33° C 22% 1011.4 hPa 0 mm - 475 W/m² -
1787608687 42.78° C 22% 1011.4 hPa 0 mm - 478 W/m² -
1787608387 42.22° C 22% 1011.4 hPa 0 mm - 486 W/m² -
1787608084 42.78° C 23% 1011.5 hPa 0 mm - 474 W/m² -
1787607780 43.33° C 23% 1011.6 hPa 0 mm - 498 W/m² -
1787607477 43.33° C 23% 1011.6 hPa 0 mm - 492 W/m² -
1787607173 43.89° C 22% 1011.6 hPa 0 mm - 461 W/m² -
1787606868 42.78° C 23% 1011.7 hPa 0 mm - 493 W/m² -
1787606566 42.22° C 23% 1011.7 hPa 0 mm - 508 W/m² -
1787606266 42.22° C 24% 1011.7 hPa 0 mm - 515 W/m² -
1787605966 42.22° C 24% 1011.8 hPa 0 mm - 562 W/m² -
1787605664 43.33° C 22% 1011.8 hPa 0 mm - 591 W/m² -
1787605361 43.33° C 22% 1011.7 hPa 0 mm - 578 W/m² -
1787605057 43.33° C 23% 1011.9 hPa 0 mm - 584 W/m² -
1787604756 43.89° C 23% 1012.1 hPa 0 mm - 584 W/m² -
1787604451 42.78° C 23% 1012.3 hPa 0 mm - 583 W/m² -
1787604146 41.67° C 25% 1012 hPa 0 mm - 599 W/m² -
1787603845 42.22° C 23% 1012.2 hPa 0 mm - 623 W/m² -
1787603540 41.67° C 25% 1012.2 hPa 0 mm - 624 W/m² -
1787603236 41.67° C 25% 1012.4 hPa 0 mm - 626 W/m² -
1787602932 41.67° C 25% 1012.4 hPa 0 mm - 642 W/m² -
1787602627 41.67° C 25% 1012.3 hPa 0 mm - 622 W/m² -
1787602323 41.67° C 25% 1012.5 hPa 0 mm - 602 W/m² -
1787602022 42.22° C 24% 1012.6 hPa 0 mm - 612 W/m² -
1787601716 42.22° C 25% 1012.6 hPa 0 mm - 632 W/m² -

* Rain latest hour (hover to see other rain measurements)
** Current wind speed in m/s (hover to see current wind gust speed)